ORBCOMM FM 23

Satellite information

Favourite Embed

Satellite Type and Status

PAYLOADIN ORBIT

Key statistics

Satellite ORBCOMM FM 23 at a glance.

Uptime

9944

Days in orbit

Revolutions

≈ 14.4

Per day

Orbit

LEO

Low Earth Orbit

Inclination

45.0

Latest

Satellite identification and parameters

Extended collection of information and parameters for ORBCOMM FM 23.

Object identification

Identified? True

Debris? False

Object name: ORBCOMM FM 23

International designator: 1998-053C

Object number (NORAD): 25477

Object ID (CCSDS): 25477

Country: ORBITAL TELECOMMUNICATIONS SATELLITE (GLOBALSTAR) (ORB)

Current information (Y/N): Y

RCS size: MEDIUM

Orbital parameters

Period: 100.137 minutes

Inclination: 45.0065 deg

SMA: 7143.152 km

Apoapsis: 766.528 km

Periapsis: 763.507 km

RAAN: 148.1519 deg

Eccentricy: 0.00021147

Argument of periapsis: 55.386 deg

Mean anomaly: 304.7187 deg

Mean motion: 14.38029839 rev/day

Mean motion (dot): 0.00001534 rev/day2

B* drag term: 0.00054881484 1/REarth

Two-line elements (TLE)

Creation date: Dec. 12, 2025, 10:14 a.m.

Reference frame: TEME

Reference center: EARTH

Epoch: Dec. 12, 2025, 4:24 a.m. UTC

TLE line 0: 0 ORBCOMM FM 23

TLE line 1: 1 25477U 98053C 25346.18353467 .00001534 00000-0 54881-3 0 9999

TLE line 2: 2 25477 45.0065 148.1519 0002115 55.3860 304.7187 14.38029839423019

Live tracking on map

Real-time ground track for satellite ORBCOMM FM 23.

In-orbit conjunctions

There are no conjunctions computed for ORBCOMM FM 23, at the moment. Check back to stay up to date, as we update our databases every day.

Go to all conjunctions

Associated space launch

ORBCOMM FM 23 was lifted into orbit during the mission ‘Pegasus XL HAPS | Orbcomm-C1 - C8’, on board a Pegasus XL HAPS space rocket.

The launch took place on Sept. 23, 1998, 5:06 a.m. from Wallops Flight Facility.

For more information about the launch, click the button.

Launch to space Pegasus XL HAPS | Orbcomm-C1 - C8
Pegasus XL HAPS | Orbcomm-C1 - C8

Agency: N/A

Status: Launch Successful

Launch date: Sept. 23, 1998, 5:06 a.m. UTC

Rocket: Pegasus XL HAPS

Launch pad: Wallops Flight Facility

Location: Air launch to orbit

...

Latest news about this satellite

There are no fresh news available about this satellite. Check back as we update our databases every day.


Newsletter sign-up

Weekly statistics, charts and insights to help you stay on top of the space industry.